AirNav   Air Wisconsin Up To $57,000 Bonus
 
 994 users online  

01J Hilliard Airpark
Hilliard, Florida, USA

GOING TO HILLIARD?


FAA INFORMATION EFFECTIVE 22 APRIL 2021

Location

FAA Identifier: 01J
Lat/Long: 30-41-09.4800N 081-54-22.8350W
30-41.158000N 081-54.380583W
30.6859667,-81.9063431
(estimated)
Elevation: 59 ft. / 18.0 m (surveyed)
Variation: 03W (1985)
From city: 1 mile E of HILLIARD, FL
Time zone: UTC -4 (UTC -5 during Standard Time)
Zip code: 32046

Airport Operations

Airport use: Open to the public
Activation date: 12/1969
Control tower: no
ARTCC: JACKSONVILLE CENTER
FSS: GAINESVILLE FLIGHT SERVICE STATION
NOTAMs facility: GNV (NOTAM-D service available)
Attendance: UNATNDD
Wind indicator: lighted
Segmented circle: no
Lights: ACTVT PAPI RWY 18 & 36 ; HIRL RWY 18/36 - CTAF.
Beacon: white-green (lighted land airport)
Operates sunset to sunrise.

Airport Communications

CTAF: 122.9
WX ASOS at JAX (16 nm SE): 125.85 (904-741-4304)

Nearby radio navigation aids

VOR radial/distance  VOR name  Freq  Var
VQQr001/(28.4)CECIL VOR117.9003W
CRGr318/29.2CRAIG VORTAC114.5003W
SSIr231/32.3BRUNSWICK VORTAC109.8004W
TAYr075/35.1TAYLOR VORTAC112.9003W

 
NDB name  Hdg/Dist  Freq  Var  ID
DINNS344/14.334406WJA .--- .-

Airport Services

Fuel available: 100LL
Parking: tiedowns
Airframe service: NONE
Powerplant service: NONE
Bottled oxygen: NONE
Bulk oxygen: NONE

Runway Information

Runway 18/36

Dimensions: 3600 x 125 ft. / 1097 x 38 m
Surface: turf, in fair condition
SOFT & WET JUN-AUG & AFT RAINS.
Runway edge lights: high intensity
RUNWAY 18  RUNWAY 36
Latitude: 30-41.454833N30-40.861167N
Longitude: 081-54.387000W081-54.374167W
Elevation: 54.1 ft.51.3 ft.
Traffic pattern: leftleft
Displaced threshold: 400 ft.730 ft.
Markings: NSTD, in good conditionNSTD, in good condition
Visual slope indicator: 2-light PAPI on right (3.00 degrees glide path)
PAPI 18 UNUSBL BYD 8 DEG RIGHT OF CRS.
2-light PAPI on left (3.00 degrees glide path)
PAPI 36 UNUSBL BYD 5 DEG LEFT OF CRS.
Touchdown point: yes, no lightsyes, no lights
Obstructions: 7 ft. fence, 32 ft. from runway, 4:1 slope to clear
APCH RATIO 19:1 TO DSPLCD THR DUE TO 44 FT TREES 420 FT FM END OF RWY 75 FT LEFT OF CNTRLN.
54 ft. trees, 270 ft. from runway, 90 ft. right of centerline, 5:1 slope to clear
APCH RATIO 18:1 TO DSPLCD THR DUE TO 71 FT TREES 125 FT RIGHT OF CNTRLN; 540 FT FM RWY END.

Airport Ownership and Management from official FAA records

Ownership: Publicly-owned
Owner: TOWN OF HILLIARD
PO BOX 249
HILLIARD, FL 32046
Phone 904-845-3555
CONTACT PERSON: LISA PURVIS, 904-845-3555
Manager: MICHAEL ARNOLD
P.O. BOX 549
HILLIARD, FL 32406
Phone 904-583-6159
AIRPORT PHYSICAL ADDRESS: 37776 EAST WOOD ROAD

Airport Operational Statistics

Aircraft based on the field: 23
Single engine airplanes: 23
    
Aircraft operations: avg 96/week *
62% local general aviation
38% transient general aviation
* for 12-month period ending 06 February 2018

Additional Remarks

A30A-18 TREES 420 FT BFR THE APCH END OF THE RWY.
A30A-36 TREES 270-620 FT BFR THE APCH END OF THE RWY.
ARPT CLSD EXCP VMC & FM SS-SR.
FOR CD CTC JACKSONVILLE APCH AT 904-741-0284.

Instrument Procedures

There are no published instrument procedures at 01J.

Some nearby airports with instrument procedures:

KJAX - Jacksonville International Airport (16 nm SE)
KFHB - Fernandina Beach Municipal Airport (23 nm E)
KHEG - Herlong Recreational Airport (25 nm S)
KVQQ - Cecil Airport (28 nm S)
KCRG - Jacksonville Executive Airport at Craig (29 nm SE)
 
Loc | Ops | Rwys | IFR | FBO | Links
Com | Nav | Svcs | Stats | Notes
Area around 01J (Hilliard Airpark)
 
Road maps at: MapQuest Bing Google
 
Aerial photo
WARNING: Photo may not be current or correct
Aerial photo of 01J (Hilliard Airpark)
Photo by Jack Baily
Photo taken 18-May-2013
looking south.

Do you have a better or more recent aerial photo of Hilliard Airpark that you would like to share? If so, please send us your photo.

 
Sectional chart

 
Airport distance calculator
Flying to Hilliard Airpark? Find the distance to fly.

From to 01J

Sunrise and sunset
Times for 15-May-2021
 Local
(UTC-4)
 Zulu
(UTC)
Morning civil twilight06:0710:07
Sunrise06:3410:34
Sunset20:1400:14
Evening civil twilight20:4100:41

Current date and time
Zulu (UTC)  16-May-2021 01:13:03
Local (UTC-4)  15-May-2021 21:13:03
 
METAR
KJAX 
16nm SE 
160056Z 04003KT 10SM FEW035 SCT250 17/11 A3019 RMK AO2 SLP224 T01670106
KFHB 
23nm E 
160055Z AUTO 10007KT 10SM CLR 20/10 A3020 RMK AO2 T01990101
KHEG 
25nm S 
160055Z AUTO 07005KT 8SM CLR 19/09 A3021 RMK AO2
KVQQ 
28nm S 
160050Z 08008KT 10SM CLR 20/07 A3018
KCRG 
29nm SE 
160053Z AUTO 08005KT 10SM CLR 20/12 A3020 RMK AO2 SLP224 T02000117
KNIP 
31nm SE 
160053Z 06008KT 10SM FEW250 20/12 A3020 RMK AO2 SLP221 T02000117 $
KNRB 
31nm SE 
160052Z AUTO 07013KT 10SM CLR 21/12 A3019 RMK AO2 SLP222 T02110122
TAF
KJAX 
16nm SE 
151823Z 1518/1618 06015G27KT P6SM FEW050 SCT250 FM160100 09006KT P6SM SCT250
NOTAMs
Click for the latest NOTAMs
NOTAMs are issued by the DoD/FAA and will open in a separate window not controlled by AirNav.

 

 
 

FBO, Fuel Providers, and Aircraft Ground Support

  
 Business Name 
 
 Contact 
 
 Services / Description 
 
Fuel Prices
 
Comments
  
Hilliard Aviation 904-583-6159
[web site]
[email]
Airport management, Aviation fuel, Aircraft parking (ramp or tiedown), Aircraft maintenance, Organization with aviation interests

More info about Hilliard Aviation
Titan
100LL
SS $4.35 
 Updated 05-May-2021
 
   2 read write
SS=Self service
Update Fuel Prices
 

Would you like to see your business listed on this page?

 If your business provides an interesting product or service to pilots, flight crews, aircraft, or users of the Hilliard Airpark, you should consider listing it here.  To start the listing process, click on the button below
 
Add a business
 

Other Pages about Hilliard Airpark

www.hilliardairpark.com
 
Update a link
 
Copyright © AirNav, LLC. All rights reserved. Privacy Policy  Contact